Retour au catalogue

ONEWEB-0334

ActifCommunicationsPO
NORAD 49200·PAYLOAD·🇬🇧 United Kingdom

Lancé Sep 14, 2021 depuis Baikonur Cosmodrome

Loading…

Prochains Passages (prochaines 24 heures)

TLE

FraisSource: CelesTrak SupGP

Époque: Sep 14, 2026, 22:13 UTC

1 49200C 21083Q   26257.92586063  .00003143  00000+0  77392-2 0  2577
2 49200  87.9144 256.5435 0002205  69.3464 359.5234 13.20771072    13

Suivez ONEWEB-0334 en temps réel avec AllMySat

Download on the App Store